Other Public Products
Issued by NWS Charleston, SC

Current Version | Previous Version | Graphics & Text | Print | Product List | Glossary On
Versions: 1 2 3 4 5 6 7 8 9 10 11 12 13 14 15 16 17 18 19 20 21 22 23 24 25 26 27 28 29 30 31 32 33 34 35 36 37 38 39 40 41 42 43 44 45 46 47 48 49 50
000 FPUS82 KCHS 251327 OPUCHS TEST...KCHS/KSAV Gateway Observations...TEST National Weather Service Charleston SC 900 AM EDT TUE JUL 25 2017 NOTE: "fair" indicates few or no clouds below 12,000 feet with no significant weather and/or obstructions to visibility. SCZ050-WAZ558-NCZ071-TXZ119-213-PAZ071-DCZ001-FLZ074-172-MI076- NYZ176-178-MAZ016-IL014-TNZ027-NJZ106-GAZ044-MD014-251400- ...Gateway Observations for Charleston International... CITY SKY/WX TMP DP RH WIND PRES REMARKS Chas Airport MOSUNNY 79 75 87 SW6 30.07R Seattle PTCLDY 60 51 72 CALM 30.03R Charlotte PTSUNNY 81 73 76 N3 30.10R Dallas DFW MOSUNNY 80 74 81 S9 30.06R Dallas Love MOSUNNY 79 73 82 S8 30.07R Philladelphia CLOUDY 69 64 84 E6 30.04R Wash National MOSUNNY 74 59 59 N15G23 30.07R Baltimore MOSUNNY 72 60 66 NW10G18 30.05R Miami PTSUNNY 87 78 74 E3 30.12S HX 100 Detroit MOSUNNY 67 55 65 NE6 30.22S Newark LGT RAIN 63 60 90 NE8 30.05R Laguardia CLOUDY 65 60 84 NE9 30.05R J F K CLOUDY 66 60 81 NE9 30.06R Boston Logan CLOUDY 59 56 89 N10 30.09R Ft. Lauderdale MOSUNNY 86 78 77 SE5 30.11S HX 98 Chicago O`Hare MOSUNNY 70 60 70 SE12 30.19R Chicago Midway MOSUNNY 70 59 68 SE9 30.19R Houston Bush PTSUNNY 79 75 87 S6 30.10R Houston Hobby CLOUDY 82 75 79 SE5 30.09R Nashville MOSUNNY 82 76 81 CALM 30.11R Atlanta CLOUDY 76 72 87 W6 30.11R $$ GAZ044-118-TXZ119-213-NCZ071-DCZ001-MDZ014-506-PAZ021-071-NJZ106- NYZ176-178-MAZ106-OHZ011-021-055-MIZ076-KYZ091-ILZ014-INZ047- MNZ060-ONZ431-251400- ...Gateway Observations for Savannah International... CITY SKY/WX TMP DP RH WIND PRES REMARKS Savannah Arpt LGT RAIN 79 73 82 W7 30.10S Atlanta CLOUDY 76 72 87 W6 30.11R Charlotte PTSUNNY 81 73 76 N3 30.10R Dallas DFW MOSUNNY 80 74 81 S9 30.06R Houston Bush PTSUNNY 79 75 87 S6 30.10R Wash National MOSUNNY 74 59 59 N15G23 30.07R Wash Dulles MOSUNNY 71 56 58 NW13 30.09R Baltimore MOSUNNY 72 60 66 NW10G18 30.05R Philadelphia CLOUDY 69 64 84 E6 30.04R Newark LGT RAIN 63 60 90 NE8 30.05R Laguardia CLOUDY 65 60 84 NE9 30.05R J F K CLOUDY 66 60 81 NE9 30.06R Boston CLOUDY 59 56 89 N10 30.09R Pittsburg DRIZZLE 63 58 83 NW12 30.18R Akron CLOUDY 66 55 67 N5 30.19R Cleveland CLOUDY 68 57 68 N12 30.21R Cincinnati SUNNY 68 60 75 E10 30.20R Columbus SUNNY 65 58 79 NE7 30.21R Detroit MOSUNNY 67 55 65 NE6 30.22S Chicago O`Hare MOSUNNY 70 60 70 SE12 30.19R Minneapolis CLOUDY 68 62 81 SE8 30.03F Indianapolis MOSUNNY 68 57 68 E12 30.19R Toronto Canada PTSUNNY 64 55 72 N10 30.18R $$

USA.gov is the U.S. government's official web portal to all federal, state and local government web resources and services.